Home > Weather > Achern > Past weeks

Flag for Germany Weather for the Past 2 Weeks in Achern, Baden-Württemberg, Germany

Now
45 °F

Clear.


Feels Like: 45 °F
Forecast: 38 / 47 °F
Wind: 1 mph from North

Location: Karlsruhe - Baden Wurttemberg

Current Time: Feb 6, 2016 at 8:10:27 PM

Latest Report: Feb 6, 2016 at 7:20 PM


Visibility: 10 mi

Pressure: 29.83 "Hg

Humidity: 66%

Dew point: 34 °F

Location of AchernLocation

Historic Weather in Achern — Graph

°F

Achern Temperature Yesterday

Maximum temperature yesterday: 52 °F (at 1:20 PM)
Minimum temperature yesterday: 34 °F (at 11:50 PM)
Average temperature yesterday: 44 °F

High & Low Weather Summary for the Past Weeks

 TemperatureHumidityPressure
High59 °F (Jan 26, 2:20 PM)100% (Jan 22, 6:20 PM)30.63 "Hg (Jan 22, 6:20 PM)
Low27 °F (Jan 22, 6:20 PM)39% (Feb 6, 3:50 PM)29.83 "Hg (Feb 6, 5:50 PM)
Average45 °F79%30.26 "Hg
* Reported Jan 22 6:20 PM — Feb 6 6:50 PM, Achern, Weather by CustomWeather, © 2016

Note: Actual official high and low records may vary slightly from our data, if they occured in-between our weather recording intervals... More about our weather records

Advertising

Achern Weather History for the Previous 24 Hours

 ConditionsComfort  
Time TempWeatherWind HumidityBarometerVisibility
6:50 PM
Sat, Feb 6
46 °FClear.3 mph66%29.83 "Hg10 mi
6:20 PM52 °FClear.2 mph54%29.83 "Hg10 mi
5:50 PM52 °FClear.6 mph54%29.83 "Hg10 mi
5:20 PM54 °FSunny.7 mph51%29.86 "Hg10 mi
4:50 PM57 °FSunny.8 mph44%29.86 "Hg10 mi
4:20 PM59 °FSunny.8 mph45%29.89 "Hg10 mi
3:50 PM59 °FSunny.10 mph39%29.89 "Hg10 mi
3:20 PM59 °FSunny.13 mph42%29.92 "Hg10 mi
2:50 PM59 °FSunny.10 mph45%29.95 "Hg10 mi
2:20 PM59 °FSunny.10 mph45%29.95 "Hg10 mi
1:50 PM59 °FSunny.10 mph45%29.98 "Hg10 mi
1:20 PM57 °FSunny.10 mph51%30.01 "Hg10 mi
12:50 PM57 °FPassing clouds.9 mph55%30.01 "HgN/A
12:20 PM55 °FSunny.12 mph55%30.04 "Hg10 mi
11:50 AM54 °FSunny.9 mph58%30.04 "Hg10 mi
11:20 AM46 °FPassing clouds.5 mph100%30.04 "HgN/A
10:50 AM39 °FSunny.3 mph100%30.07 "Hg10 mi
10:20 AM39 °FSunny.3 mph100%30.07 "Hg10 mi
9:50 AM36 °FSunny.2 mph100%30.07 "Hg10 mi
9:20 AM34 °FSunny.5 mph93%30.07 "Hg10 mi
8:50 AM32 °FSunny.5 mph100%30.07 "Hg10 mi
8:20 AM30 °FFog.3 mph100%30.09 "HgN/A
7:50 AM30 °FLight fog.1 mph100%30.07 "HgN/A
7:20 AM32 °FClear.2 mph100%30.09 "Hg10 mi
6:50 AM30 °FClear.1 mph100%30.07 "Hg10 mi
6:20 AM30 °FClear.2 mph100%30.09 "Hg10 mi
5:50 AM30 °FClear.2 mph100%30.09 "Hg10 mi
4:50 AM32 °FClear.2 mph100%30.09 "Hg6 mi
12:20 AM34 °FLight fog.No wind93%30.18 "HgN/A
11:50 PM
Fri, Feb 5
34 °FLight fog.No wind100%30.18 "HgN/A
11:20 PM36 °FFog.2 mph93%30.18 "HgN/A
10:50 PM36 °FFog.1 mph100%30.18 "HgN/A
10:20 PM36 °FFog.1 mph100%30.21 "HgN/A
9:50 PM36 °FFog.No wind93%30.21 "Hg3 mi
9:20 PM39 °FFog.1 mph100%30.21 "Hg3 mi
8:50 PM39 °FFog.2 mph93%30.21 "HgN/A
8:20 PM41 °FClear.2 mph93%30.24 "Hg10 mi
Weather by CustomWeather, © 2016

See weather overviewHow to use our weather pages